Weather Roundup
Issued by NWS Corpus Christi, TX

Home | Current Version | Previous Version | Text Only | Print | Product List | Glossary On
Versions: 1 2 3 4 5 6 7 8 9 10 11 12 13 14 15 16 17 18 19 20 21 22 23 24 25 26 27 28 29 30 31 32 33 34 35 36 37 38 39 40 41 42 43 44 45 46 47 48 49 50
000
ASUS44 KCRP 231910
HRRCRP

SOUTH TEXAS REGIONAL WEATHER ROUNDUP
NATIONAL WEATHER SERVICE CORPUS CHRISTI TX
200 PM CDT SAT JUL 23 2016


TXZ229>244-232000-
...CORPUS CHRISTI AREA OBSERVATIONS...

CITY           SKY/WX    TMP DP  RH WIND       PRES   REMARKS
CORPUS CHRISTI MOSUNNY   95  77  55 E13G23    29.94F HX 109
NAS CORPUS CHR MOSUNNY   92  80  68 SE15      29.96F HX 110
ROCKPORT       SUNNY     93  74  53 SE13      29.95F HX 103
KINGSVILLE NAS MOSUNNY   98  76  49 VRB6      29.93F HX 112
ALICE          SUNNY     99  68  36 VRB6G18   29.93F HX 104
FALFURRIAS       N/A     96  67  38 SE8       29.93F HX 100
$$

...VICTORIA AREA OBSERVATIONS...

CITY           SKY/WX    TMP DP  RH WIND       PRES   REMARKS
VICTORIA       SUNNY     97  68  38 VRB6      29.95F HX 102
BEEVILLE       FAIR      97  71  43 S9        29.95F HX 105
PLEASANTON     MOSUNNY   96  63  33 SE9       29.95F HX  98
SAN ANTONIO    MOSUNNY   93  68  43 SE10      29.98F HX  97
$$

...LAREDO AREA OBSERVATIONS...

CITY           SKY/WX    TMP DP  RH WIND       PRES   REMARKS
LAREDO         SUNNY    100  68  35 E12G17    29.92F HX 105
COTULLA        SUNNY     99  63  30 S8G18     29.93F HX 101
DEL RIO        SUNNY     99  63  30 SE14G26   29.93F HX 101
MCALLEN        MOSUNNY  100  72  40 SE12G18   29.93F HX 109
HEBBRONVILLE   MOSUNNY   96  65  35 S8G17     29.95F HX  99
$$

...OTHER TEXAS OBSERVATIONS...

CITY           SKY/WX    TMP DP  RH WIND       PRES   REMARKS
BROWNSVILLE    MOSUNNY   95  75  52 SE14G21   29.95F HX 107
HOUSTON        MOSUNNY   94  71  47 CALM      29.96F HX 101
COL. STATION   MOSUNNY   95  71  45 SE8       29.97F HX 102
AUSTIN         MOSUNNY   96  68  39 S8        29.96F HX 101
WACO           SUNNY     98  67  36 S10       29.96F HX 102
FORT WORTH     MOSUNNY   99  68  36 SW12      29.94F HX 104
WICHITA FALLS  SUNNY     99  65  32 S7G17     29.93F HX 102
LUBBOCK        MOSUNNY   95  53  24 S21       30.04F HX  92
EL PASO        MOSUNNY   99  46  16 S8        30.03F HX  95
$$

...MARINE OBSERVATIONS...

STATION/POSITION TIME  SKY/WX   TEMP    WIND        PRES    VSBY  WAVE   SWELL
                                AIR SEA DIR/SP/G                  HT/PER HT/PER
                 (UTC)          (F)     (DEG/KT/KT) (MB)    (MI)  (FT/S) (FT/S)
PORT ARANSAS     1900            85 90  130/ 10/ 11 1015.0F
BUOY 90 E PORT A 1850            86 88  150/  8/ 10 1015.6F         2/ 6   2/ 6
BUOY 45 SE BAFFI 1850            85 87  150/  6/  8 1014.6F         2/ 5   2/ 5
BUOY 200 E PT IS 1850            85 88  110/  4/  4 1016.0F         1/ 4   2/ 5
BUOY 15 E GALVES 1850            86 90  200/  6/  8 1015.5F         2/ 7   2/ 7
$$




USA.gov is the U.S. government's official web portal to all federal, state and local government web resources and services.